Вернуться в каталог

ONEWEB-0509

АктивенСвязьPO
NORAD 54127·PAYLOAD·🇬🇧 United Kingdom

Запущен Oct 22, 2022 с Satish Dhawan Space Centre

Loading…

Ближайшие Пролёты (ближайшие 24 часа)

TLE

СвежийSource: CelesTrak SupGP

Эпоха: Sep 14, 2026, 17:32 UTC

1 54127C 22138Q   26257.73069861 -.00001653  00000+0 -41334-2 0  2577
2 54127  87.9109 287.1329 0001903  91.0150  19.8447 13.19724291    19

Отслеживайте ONEWEB-0509 в реальном времени с AllMySat

Download on the App Store